Wind_Speed
24 25 26 27 29 30 31 32 32 32 31 30 29 30 31 32 32 33 34 35 36 38 40 43 45 46 47 47 48 49 50 50 49 48 47 48 50 51 49 48 49 48 47 46 45 44 42 42 41 40 39 37 36 33 31 28 26 25 23 23 21 20 21 22 22 16 14 9 9 12 10 9 11 8 5 5 1 8 11 13 19 23 26 26 28 32 34 34
25 26 27 29 30 32 33 34 35 36 36 35 33 32 32 34 34 35 35 36 37 38 40 42 44 46 48 49 49 49 50 51 50 48 48 49 51 51 50 50 50 49 49 48 47 45 44 43 42 41 40 39 38 35 33 30 28 26 24 23 23 22 22 23 22 17 13 7 10 15 11 9 11 8 6 4 2 7 8 10 17 21 23 24 26 30 32 33
26 27 29 30 32 33 35 36 38 39 39 39 39 37 35 35 36 37 37 38 38 39 40 42 43 46 48 50 50 50 51 52 51 50 49 49 51 52 52 52 51 50 50 49 49 47 46 45 44 43 42 41 40 37 35 32 30 27 25 23 24 23 22 23 22 17 14 7 14 18 12 11 11 9 7 5 5 6 5 8 15 18 19 21 25 28 30 32
28 29 31 32 34 35 36 37 39 41 42 42 42 42 41 39 38 38 39 40 40 40 41 42 43 45 47 50 52 52 52 52 52 52 51 50 51 53 53 53 52 52 51 51 50 49 47 46 45 44 43 42 41 40 37 35 32 29 27 24 25 25 22 23 21 18 15 10 15 17 13 13 11 9 9 7 6 4 4 6 12 14 15 19 23 25 28 31
30 31 33 34 35 36 36 38 39 41 43 44 45 45 45 45 43 41 41 42 43 43 43 43 44 45 47 49 52 53 53 53 52 53 53 51 52 53 54 54 53 53 53 52 52 51 49 47 46 45 44 44 43 41 39 36 34 31 29 26 25 25 24 22 20 18 16 11 14 16 14 13 12 11 9 8 5 2 3 6 8 10 13 17 21 24 26 29
32 33 34 35 36 37 38 39 40 42 44 45 47 47 48 48 48 46 44 43 44 45 45 45 45 46 47 49 51 53 54 53 53 55 55 54 54 54 54 55 54 55 54 54 53 52 51 49 47 46 45 45 44 42 41 38 35 33 30 27 26 25 25 22 19 18 15 12 15 17 14 11 12 12 9 7 5 1 3 6 6 10 12 15 19 22 24 26
34 35 36 37 39 40 41 41 42 43 45 47 48 50 50 51 51 50 48 46 45 46 48 47 47 47 48 49 51 53 54 54 55 56 56 56 56 56 55 56 56 56 56 56 54 53 52 51 48 47 46 45 45 44 42 40 37 35 32 29 27 26 26 22 19 18 13 12 18 19 15 12 14 12 9 8 6 3 2 4 6 11 12 15 17 19 22 25
36 37 38 39 41 42 44 45 45 46 47 49 50 52 53 54 54 54 53 51 48 48 49 50 49 49 50 51 52 53 54 55 56 57 57 58 58 58 57 57 57 56 57 57 56 54 53 52 50 48 47 46 46 45 44 41 38 37 34 31 28 28 28 24 22 19 12 12 19 20 17 16 15 14 12 9 7 4 2 1 7 11 12 14 15 17 20 23
38 39 41 42 44 45 46 47 48 49 50 51 52 54 55 56 57 57 56 55 53 51 50 51 52 51 51 52 53 53 53 55 57 58 58 59 59 59 59 58 58 57 58 58 57 55 54 53 52 50 49 47 47 46 45 43 40 39 36 34 30 29 29 27 26 22 17 16 18 19 20 19 17 16 15 12 9 5 2 2 7 11 12 13 13 15 18 21
40 41 44 46 47 49 49 50 51 52 53 54 54 55 57 58 59 59 59 58 56 54 52 52 53 54 54 54 54 54 54 56 58 59 60 60 61 61 60 60 59 58 58 59 58 57 55 54 52 52 50 49 48 47 47 45 43 41 38 36 32 30 29 29 29 27 23 22 22 21 22 22 20 19 17 16 11 5 3 4 5 9 10 11 11 12 16 19
41 43 47 49 51 52 53 53 54 55 55 56 57 57 58 59 61 62 62 62 60 58 56 54 54 56 56 56 56 55 55 57 58 59 61 62 62 62 62 62 61 60 60 60 59 58 56 54 53 53 53 50 49 48 48 47 45 43 41 38 34 32 30 30 31 29 28 27 27 25 24 25 23 20 19 19 13 6 7 8 7 8 9 9 9 11 15 18
44 46 49 52 54 56 56 56 57 57 57 58 58 59 59 60 61 62 63 64 64 63 60 58 56 57 58 58 57 56 57 58 59 60 61 63 64 64 63 63 62 61 61 61 60 58 56 55 55 55 54 53 51 49 48 48 47 46 44 40 37 34 30 29 31 31 31 30 30 28 26 27 26 24 22 20 14 11 11 10 9 8 7 6 8 9 13 16
47 49 53 56 58 59 59 59 59 59 59 59 59 59 60 60 61 62 64 65 65 65 64 62 60 58 59 59 59 59 59 60 61 62 62 63 64 64 64 64 63 63 62 62 61 59 57 56 56 56 55 54 53 51 50 50 50 49 46 42 39 37 33 30 31 33 33 32 32 31 29 29 28 26 24 21 15 12 11 11 11 10 7 5 6 8 11 14
50 54 57 60 62 62 62 62 61 61 60 60 59 59 59 59 60 61 63 64 66 66 67 66 64 62 60 61 62 62 62 62 63 63 63 63 64 64 65 64 64 63 63 63 61 60 58 57 58 58 56 56 55 53 51 51 52 51 48 44 41 40 39 33 30 35 37 34 34 32 30 30 27 24 25 23 17 12 12 14 12 11 8 4 5 6 9 12
55 58 62 65 66 66 66 65 64 63 62 60 59 58 57 58 59 61 62 64 66 67 68 68 67 66 63 63 64 65 64 63 63 63 63 62 62 63 64 65 64 64 64 63 62 61 59 58 59 59 58 58 57 55 53 52 53 52 50 46 44 43 42 36 31 36 40 38 36 33 31 30 27 25 25 24 20 16 16 16 13 11 9 5 5 5 6 10
59 63 66 69 70 70 70 69 67 66 63 61 58 56 55 55 57 59 61 63 66 67 68 69 69 69 67 65 65 66 65 64 63 62 63 62 62 63 64 66 66 65 65 65 63 62 60 59 60 60 60 60 59 58 56 54 53 53 52 48 46 46 45 41 35 36 40 40 38 35 32 30 28 26 25 25 23 19 18 17 14 12 9 6 4 4 5 7
63 66 70 73 74 74 73 72 70 67 64 60 56 53 51 51 53 57 60 63 66 68 69 70 70 70 70 67 65 66 66 66 65 64 64 64 63 63 65 67 67 67 67 67 65 63 62 60 60 61 61 61 61 60 59 57 55 54 54 52 48 47 48 46 41 38 40 41 39 36 33 30 29 28 26 26 24 21 21 20 17 14 10 7 5 5 5 5
66 69 73 76 77 76 75 74 71 68 63 58 53 49 46 46 49 53 57 61 66 69 70 71 72 72 72 70 68 67 68 69 68 66 66 66 66 65 65 67 68 69 68 68 67 65 63 62 61 62 62 61 62 63 63 61 59 56 55 56 52 49 49 48 45 42 41 41 40 37 34 31 30 29 28 27 25 24 25 24 20 16 12 9 8 7 7 6
68 72 75 78 79 78 77 75 71 67 61 54 47 43 41 40 43 47 53 59 64 69 72 73 74 74 74 74 72 70 69 71 71 69 68 68 68 67 66 67 69 70 70 69 68 66 65 64 63 62 62 63 65 67 66 63 61 59 57 57 56 51 49 49 47 45 41 40 41 39 37 35 34 33 31 29 27 27 28 26 23 18 14 11 10 9 8 7
70 74 77 80 81 80 78 75 71 65 57 49 42 38 36 36 37 41 47 54 61 68 72 75 75 76 76 76 75 72 70 71 72 71 70 69 69 68 68 68 69 70 71 70 69 68 67 66 65 66 66 67 67 67 66 64 62 61 59 58 58 55 51 50 47 46 42 39 40 40 39 38 37 36 34 32 30 29 29 27 23 19 16 13 11 11 9 7
72 76 79 81 82 81 79 75 69 61 51 44 38 34 32 31 33 36 41 48 56 64 70 75 77 78 78 78 77 74 71 71 71 72 71 71 70 70 69 68 69 70 71 71 70 69 68 68 68 70 70 68 67 66 66 66 64 63 61 59 59 56 52 51 49 48 46 40 40 42 41 40 39 37 37 36 33 32 30 27 24 21 18 15 13 12 10 8
73 77 80 83 84 83 80 74 65 55 47 40 35 31 28 27 28 32 36 42 50 58 66 73 77 79 80 79 78 76 73 71 71 72 73 72 72 72 71 70 69 70 71 72 71 70 69 70 72 72 70 68 67 67 67 67 65 64 63 61 60 57 52 51 52 53 53 47 43 44 44 41 39 39 40 40 37 35 32 28 25 23 19 16 14 13 12 10
75 78 82 84 85 83 79 71 60 51 43 37 32 27 24 22 24 27 31 36 43 51 60 69 76 80 81 81 80 78 76 73 72 73 74 74 74 73 72 72 71 70 70 71 71 71 72 73 74 73 71 70 69 69 68 68 67 66 65 63 62 60 56 53 55 58 57 53 47 44 45 43 39 39 40 40 39 37 34 30 27 25 21 18 17 16 14 12
76 80 83 86 86 84 77 67 55 47 40 35 30 25 21 19 20 22 26 31 37 45 53 63 72 78 81 83 82 81 79 76 74 74 75 76 75 75 74 74 72 71 70 71 72 73 75 76 76 74 72 71 70 70 69 69 69 68 67 66 64 63 61 57 56 59 57 55 51 45 45 45 41 39 39 38 39 38 35 32 29 26 23 21 21 21 18 16
77 81 85 87 87 83 75 62 51 43 37 33 29 24 19 17 17 19 22 26 32 38 47 56 66 74 80 83 83 83 81 79 77 75 75 77 77 76 76 75 74 73 71 71 73 74 76 76 76 75 74 72 72 71 71 70 70 70 69 69 66 65 65 62 59 60 57 54 53 47 45 46 42 39 39 39 39 38 35 33 31 28 25 25 25 24 22 20
78 82 86 88 87 83 72 58 47 40 35 31 27 23 19 16 15 17 19 22 27 33 40 49 59 68 76 81 83 84 83 82 79 77 76 77 77 77 76 76 75 75 73 73 73 75 76 76 76 76 75 74 74 73 72 72 71 71 71 71 69 66 68 67 63 61 57 53 51 48 44 45 44 40 40 41 40 37 36 34 31 29 27 27 28 27 25 22
78 82 87 89 88 82 70 55 45 38 33 28 24 21 19 16 15 15 16 20 24 29 35 43 52 62 71 77 82 84 85 84 82 80 77 77 77 77 77 77 76 76 76 74 74 75 75 76 76 76 75 75 75 74 74 73 72 72 72 72 71 69 69 69 65 63 59 53 51 51 47 45 45 43 41 41 40 36 34 33 31 30 29 29 30 29 27 23
79 83 87 89 88 82 68 53 43 37 31 26 22 19 17 16 14 14 14 17 20 24 30 37 46 55 64 72 79 83 85 86 85 82 79 77 77 78 78 78 77 77 78 77 75 75 75 76 76 76 76 76 76 76 76 76 75 74 74 73 72 70 69 68 67 66 63 59 56 55 52 47 45 45 42 41 40 36 34 34 32 31 30 30 31 31 28 25
79 83 87 90 88 82 67 52 42 35 29 24 20 17 16 14 14 13 14 15 17 20 25 32 40 48 58 67 75 81 85 86 86 83 81 79 79 78 78 78 78 78 79 79 77 76 76 77 77 77 77 77 78 78 78 78 77 76 76 74 72 71 70 69 69 68 66 65 64 61 56 50 47 46 45 42 40 37 37 37 34 33 32 32 32 30 28 26
79 83 87 90 88 81 66 51 41 34 27 22 18 16 14 13 13 13 14 15 17 18 22 27 34 42 51 61 70 78 83 86 86 85 83 82 80 79 78 78 78 78 79 80 79 78 77 77 77 76 76 77 79 79 79 79 78 77 76 74 73 72 71 70 69 69 67 67 68 66 61 54 50 49 47 44 41 40 40 38 36 35 33 34 33 30 29 27
79 83 87 90 88 81 66 50 40 32 26 21 17 15 13 12 12 13 15 16 17 18 21 25 30 37 45 54 64 73 80 84 87 87 85 84 81 80 79 79 79 79 80 81 81 79 78 77 77 76 77 78 79 80 79 79 78 77 75 74 73 72 71 71 70 69 69 68 67 67 65 58 54 52 50 46 44 44 42 38 37 37 35 35 34 32 30 27
79 82 87 89 88 81 66 50 40 31 24 20 16 14 13 12 12 13 15 16 17 19 22 24 27 33 39 48 58 67 76 82 86 87 87 86 84 82 81 80 79 79 80 81 81 81 79 78 77 77 78 78 79 80 80 79 78 76 75 74 73 72 72 72 71 70 71 70 67 67 67 62 57 54 52 49 47 47 46 40 38 40 37 35 35 33 31 28
78 82 86 89 88 81 67 51 40 30 23 19 16 14 13 13 13 15 16 18 19 20 23 25 27 29 35 43 52 61 70 78 83 87 88 88 86 84 83 82 81 80 80 81 82 82 81 80 78 77 78 78 79 80 80 80 79 77 75 74 73 72 72 73 73 73 72 72 70 68 68 66 60 56 55 53 50 51 51 45 40 42 40 36 37 36 32 30
78 81 86 89 88 82 68 52 40 30 23 19 16 14 14 14 15 17 19 21 22 23 24 26 28 30 32 37 45 54 64 73 80 85 88 88 87 86 84 83 82 82 81 81 82 83 83 81 79 77 77 77 78 79 80 81 81 79 78 77 76 74 74 75 76 77 77 76 74 70 69 69 65 60 59 57 54 53 54 50 44 43 42 39 37 36 33 31
78 81 85 88 88 83 70 54 42 31 23 19 15 13 14 16 17 18 21 23 24 24 25 26 28 31 32 34 40 48 58 68 76 82 87 88 88 87 86 84 83 82 82 82 82 83 84 83 81 79 78 78 78 79 81 82 82 81 80 79 77 76 76 78 79 80 80 78 76 72 70 71 69 63 60 60 58 55 55 53 47 44 44 38 34 35 35 34
77 81 84 87 88 83 71 55 43 33 25 19 15 13 14 17 19 22 25 27 27 27 27 26 26 30 33 34 37 43 52 61 71 78 84 88 89 89 87 86 85 84 83 83 83 83 84 85 84 82 80 79 80 81 82 83 83 83 81 79 78 77 77 78 79 80 79 77 75 73 72 73 71 67 62 61 61 58 56 55 51 47 45 39 34 36 38 38
76 80 83 86 87 83 72 56 44 35 27 20 15 13 15 19 22 26 29 30 29 28 27 26 26 28 33 36 37 40 46 55 64 73 80 86 89 90 89 89 87 86 85 84 84 84 85 86 86 84 83 82 81 82 83 84 84 83 81 81 81 80 79 79 79 79 79 76 74 74 74 73 73 71 67 63 63 61 59 57 54 50 47 42 38 38 39 40
76 79 82 85 86 83 73 58 45 36 29 22 17 14 16 19 23 28 30 31 30 27 24 24 25 27 31 36 38 39 43 50 58 67 75 82 87 90 91 90 90 89 88 86 85 85 85 86 87 86 86 85 83 83 83 83 83 83 83 83 83 82 80 79 79 78 78 76 75 75 76 74 73 74 73 68 66 64 62 60 56 53 49 45 42 39 39 40
75 78 81 84 86 83 74 60 47 38 31 24 19 16 17 21 25 29 31 32 30 24 20 19 22 26 29 34 39 40 42 47 53 61 68 76 83 88 91 92 92 91 89 88 87 86 86 87 88 88 88 87 85 83 82 81 82 83 84 84 83 82 81 80 80 80 79 78 76 76 78 76 74 75 77 74 70 67 67 64 58 55 51 46 44 42 39 38
75 77 80 83 85 83 75 61 49 40 33 27 21 18 19 22 26 30 33 32 29 22 17 14 17 23 27 32 38 41 43 46 50 55 62 71 78 85 89 92 93 92 91 90 89 88 88 88 88 89 90 89 86 83 81 81 82 83 83 83 82 81 81 81 81 81 80 79 78 77 78 78 77 77 78 79 75 71 69 68 62 57 54 48 46 44 40 38
74 76 79 82 84 83 75 63 50 41 35 29 23 19 21 24 27 31 34 33 29 23 18 13 12 18 24 29 35 41 44 47 49 52 58 64 72 79 86 90 93 93 92 91 90 90 89 88 88 89 90 90 87 84 83 82 83 84 84 84 83 82 82 82 80 80 80 80 79 77 77 80 80 78 79 81 81 76 72 71 67 62 56 52 50 48 43 39
73 75 78 81 83 82 76 64 52 42 36 30 24 21 23 26 29 33 35 34 30 26 21 14 10 13 20 26 32 39 44 47 49 51 54 59 65 73 81 87 92 94 93 92 92 91 90 89 88 89 90 90 89 87 86 85 85 85 84 84 85 84 84 83 81 80 81 81 80 78 78 80 80 80 80 82 83 81 76 72 70 67 61 56 54 52 46 41
72 75 77 80 82 82 77 66 54 43 37 31 25 23 25 27 31 34 36 35 31 27 23 17 11 10 15 22 29 35 42 47 49 51 53 56 61 68 75 82 88 92 93 93 93 92 91 90 89 89 90 90 90 90 89 88 87 86 85 84 84 83 83 83 82 82 82 82 82 80 79 79 80 81 82 82 83 84 81 76 72 70 67 62 59 56 50 45
71 74 76 79 81 82 77 68 56 45 38 32 26 24 27 29 32 36 37 35 32 28 25 19 14 9 11 18 25 32 39 45 49 52 53 55 58 63 69 77 83 88 92 93 94 93 92 91 91 90 90 90 92 93 92 90 88 86 85 83 83 82 83 83 83 83 83 83 82 81 79 79 80 82 84 84 83 84 85 82 77 74 70 67 64 62 57 51
70 73 75 78 80 81 78 69 58 47 40 33 26 25 28 30 33 36 38 35 31 29 27 22 16 11 9 14 22 29 36 43 49 52 54 55 57 59 65 71 78 84 89 92 94 94 93 93 92 92 91 91 91 92 92 90 88 86 84 82 82 82 83 83 83 83 82 83 83 81 79 80 80 82 84 85 84 85 85 85 83 79 75 71 68 67 64 58
70 72 74 77 79 81 78 71 61 50 41 33 27 26 28 31 33 36 38 35 31 29 28 24 18 12 8 10 18 26 33 40 47 52 54 55 56 58 61 66 73 80 85 90 93 94 94 94 92 92 92 91 90 91 91 90 88 86 84 83 82 82 83 84 83 82 82 83 83 82 80 80 80 81 83 85 86 86 86 86 86 85 81 77 73 71 69 66
69 71 74 76 78 80 78 72 62 52 42 33 26 26 28 31 33 36 37 34 30 29 29 26 20 14 9 8 15 22 29 36 43 49 53 55 56 57 58 62 68 74 81 86 90 93 93 94 93 92 91 91 90 90 91 90 89 88 86 84 83 82 82 83 84 84 83 84 84 83 82 81 81 81 83 85 87 88 88 87 87 87 86 83 79 76 73 71
68 70 73 75 77 79 78 73 64 53 43 32 26 26 28 30 33 36 37 34 29 28 28 27 23 17 11 6 11 19 25 32 40 46 51 55 56 57 58 60 64 70 76 81 86 90 92 93 93 92 91 91 90 90 89 89 89 89 88 86 84 83 83 83 84 85 85 84 85 85 83 82 82 82 82 84 87 88 90 90 88 88 88 87 85 82 79 75
67 69 72 74 76 78 78 73 65 55 44 32 25 25 27 29 32 35 37 33 29 27 28 27 24 19 13 8 8 15 22 28 35 42 48 53 56 57 58 59 62 66 71 75 81 86 89 91 92 92 92 91 91 90 89 88 89 89 89 88 87 85 84 84 84 85 85 85 85 86 85 84 83 82 82 83 85 88 90 91 90 88 88 89 89 88 85 82
66 68 71 72 75 76 77 73 66 56 44 32 25 24 27 28 31 34 36 33 28 27 27 26 25 21 16 10 6 12 19 24 31 38 45 51 55 57 59 59 60 63 66 70 74 80 84 88 90 91 92 92 91 90 89 88 88 89 89 89 88 87 85 84 85 85 85 86 86 86 86 85 84 84 83 83 84 85 88 91 92 91 90 89 90 91 90 88
65 68 70 71 73 75 76 73 66 56 44 32 25 24 26 27 30 32 35 33 28 27 27 26 24 22 17 12 7 9 15 21 26 33 40 47 53 57 59 60 60 61 62 64 68 73 78 83 87 90 91 92 91 90 90 89 89 89 90 90 90 89 87 86 86 85 86 86 87 87 87 87 86 86 85 84 84 84 86 90 92 93 92 91 90 91 91 91
64 66 69 71 72 74 75 73 67 57 45 32 25 23 24 26 28 31 33 33 29 27 27 26 24 22 18 13 9 7 11 17 23 29 35 43 50 55 59 61 60 59 59 60 64 69 72 77 83 87 89 91 91 91 90 90 90 90 91 91 91 90 89 88 87 86 87 87 88 88 88 88 88 87 86 86 85 85 86 88 91 93 94 93 91 91 91 91
Wind_Direction
308 306 305 304 302 300 298 296 293 290 285 279 273 271 270 267 264 259 253 248 244 242 241 240 239 236 234 232 230 229 229 227 225 223 221 221 222 222 221 221 222 221 221 220 220 220 219 218 218 217 217 216 215 214 212 212 212 212 209 202 197 197 202 202 205 188 162 180 204 214 233 237 246 250 247 272 353 39 27 34 32 27 27 21 21 26 27 26
304 303 301 300 298 296 294 292 291 289 287 284 278 272 268 266 264 262 257 252 247 242 240 239 239 237 235 233 231 229 228 228 225 223 223 222 222 222 220 220 221 221 221 220 220 220 219 218 218 217 217 216 215 214 212 212 212 212 210 204 198 199 201 201 208 197 176 187 189 203 232 235 242 239 225 256 329 11 10 35 34 22 19 20 21 25 26 25
303 300 299 298 297 295 293 291 289 287 285 284 281 277 271 266 263 261 259 255 250 245 241 238 237 237 236 234 231 229 228 227 226 224 223 222 223 222 221 220 220 220 221 220 220 220 219 217 217 217 216 215 215 214 212 211 211 212 211 205 200 200 201 201 207 194 178 183 184 199 232 236 240 232 217 237 272 323 353 28 32 18 11 22 23 22 25 24
305 302 301 299 297 295 292 290 287 285 283 281 280 278 275 270 264 259 258 256 253 248 243 239 236 236 236 234 232 230 228 226 226 225 223 222 223 223 221 220 219 220 220 220 220 219 218 218 217 217 216 215 215 214 213 211 210 212 211 208 202 200 200 203 206 189 174 187 192 203 226 233 239 228 223 224 238 295 347 6 23 16 10 26 26 22 23 23
308 306 304 302 299 296 292 289 286 283 281 279 277 276 274 272 268 262 257 254 253 251 246 242 237 235 234 234 233 230 228 226 226 225 223 222 223 224 222 220 218 219 219 219 219 219 218 217 216 217 217 216 215 214 213 211 210 212 211 210 204 200 200 203 206 188 178 191 196 209 220 225 230 219 226 222 216 301 332 332 10 26 20 30 28 22 21 22
310 309 307 305 302 298 294 290 286 283 279 277 275 273 272 271 269 265 260 254 251 250 248 244 239 235 233 233 233 231 229 227 225 225 223 222 223 223 223 221 219 218 219 219 218 218 218 217 216 216 217 217 216 215 214 212 211 212 212 211 206 201 199 202 204 190 188 190 184 206 220 217 219 214 219 213 195 193 298 308 18 44 33 33 28 22 19 20
311 309 308 306 304 300 296 292 287 283 279 276 273 271 270 268 267 266 262 257 251 249 248 245 241 237 234 232 232 231 229 227 225 225 223 222 222 223 223 222 220 218 219 219 218 217 217 216 216 216 216 216 216 215 215 213 212 213 213 211 207 202 199 199 197 189 193 191 184 202 218 216 219 213 204 198 175 148 265 300 45 49 38 32 23 20 17 18
312 310 309 307 305 301 297 294 289 285 281 277 274 271 269 267 266 265 263 260 254 249 246 245 242 239 235 232 231 230 229 227 226 224 223 222 222 222 222 222 221 219 219 219 217 217 217 216 216 216 216 216 216 216 215 213 212 214 214 211 207 202 199 195 190 186 179 179 187 199 208 212 218 212 201 193 167 142 245 283 56 39 30 25 15 17 16 16
313 311 309 308 305 301 298 294 290 286 283 279 275 272 269 267 265 264 263 261 257 251 246 244 242 239 237 233 230 229 228 227 225 224 223 222 222 221 222 222 221 220 219 218 218 216 216 216 216 216 216 215 216 216 215 213 212 214 214 211 208 204 200 192 187 184 170 168 184 196 202 206 211 210 207 199 174 139 222 186 52 24 13 9 4 12 14 15
313 311 311 309 306 302 299 295 291 288 284 280 277 273 270 267 265 263 261 260 258 254 248 244 241 239 237 234 231 228 227 227 225 224 223 222 222 221 221 221 221 220 219 218 217 216 215 215 215 216 216 215 216 216 215 213 212 214 214 210 206 206 202 192 189 185 173 171 183 195 203 207 207 206 207 202 185 148 220 234 7 355 349 351 350 4 11 14
314 313 313 311 308 305 301 297 294 290 286 282 278 275 271 268 265 263 261 259 257 255 251 245 241 239 237 235 232 228 227 226 225 224 222 222 222 221 220 221 220 219 219 219 217 216 215 215 215 216 216 215 215 215 215 213 213 214 213 210 204 204 201 194 193 183 173 177 187 195 204 210 206 203 208 207 197 184 218 246 292 313 323 337 339 356 11 15
316 315 315 313 310 307 304 301 297 293 289 285 280 276 272 268 265 262 260 258 256 255 252 248 242 238 236 234 232 229 227 226 225 223 222 221 221 221 220 220 220 219 218 218 217 215 215 214 215 215 215 215 215 215 214 213 214 214 212 210 204 203 200 196 197 186 174 181 192 197 204 212 208 201 208 211 205 193 205 239 265 276 295 322 333 350 10 16
319 319 318 316 313 310 307 304 300 296 292 287 282 278 273 269 265 261 259 257 255 253 252 249 245 239 235 233 232 229 227 225 224 223 221 221 220 221 220 219 219 219 218 218 217 215 214 215 214 214 214 215 215 214 214 213 214 214 212 209 203 201 199 195 197 191 181 183 193 199 203 213 211 203 205 207 204 188 197 233 250 258 268 297 322 345 8 16
323 323 321 319 316 313 310 307 304 300 295 290 285 279 274 268 264 259 256 254 252 251 250 248 246 241 236 232 230 229 227 225 223 222 221 220 220 220 220 220 219 219 218 218 217 215 215 215 214 214 213 214 215 214 214 213 214 214 212 209 203 200 199 195 195 194 188 186 194 202 205 212 216 212 208 208 209 196 208 230 235 243 250 267 302 331 4 14
327 326 325 322 320 317 314 311 308 304 299 294 288 282 275 268 262 257 253 250 249 248 247 246 245 243 238 233 229 228 227 225 223 223 222 220 219 220 220 220 219 218 218 217 217 216 215 215 214 213 213 213 214 213 213 213 215 214 212 209 204 202 200 194 193 195 191 189 196 204 207 211 218 219 213 212 214 202 211 227 223 227 237 251 285 314 353 11
330 329 328 325 323 320 318 315 312 308 304 298 292 285 276 267 260 254 249 246 244 244 243 243 242 242 240 235 230 228 227 225 224 222 222 220 219 219 219 219 219 218 218 218 217 217 215 216 215 214 213 212 213 212 212 212 214 214 211 208 204 203 201 195 194 195 192 190 195 202 207 210 214 219 214 211 212 202 206 219 217 219 227 235 264 295 332 360
332 331 329 327 325 323 321 318 315 312 308 303 296 288 278 268 258 251 245 241 240 239 239 239 239 239 239 237 232 228 226 225 223 221 220 219 218 217 218 218 218 217 217 217 217 217 216 215 216 215 214 212 212 212 212 211 212 213 210 207 204 202 203 201 198 199 197 194 194 198 204 208 210 215 213 210 210 202 203 212 214 216 216 222 244 271 294 331
333 332 331 329 327 326 324 321 319 315 312 307 300 291 280 268 257 248 242 237 235 234 234 235 235 235 236 236 233 229 225 224 222 220 218 218 217 216 216 217 217 217 217 217 216 216 216 215 215 216 215 213 212 212 211 211 210 211 210 207 205 202 204 204 200 201 202 199 197 196 199 203 207 214 215 212 210 203 204 209 212 211 204 211 230 250 270 295
334 333 332 331 330 328 326 324 322 319 315 310 303 293 282 270 258 247 240 234 231 229 229 230 231 231 232 233 233 230 226 223 221 219 217 217 216 215 215 216 216 216 216 216 216 216 215 215 215 216 216 214 213 212 211 211 211 212 211 208 206 203 204 205 201 200 202 201 200 198 197 198 201 210 216 215 212 207 207 210 212 209 200 205 223 237 254 270
335 334 333 333 332 331 329 328 325 322 318 313 306 296 285 273 260 248 239 233 228 226 225 225 227 228 228 230 230 229 227 223 221 219 217 216 216 215 214 215 215 215 215 215 215 215 215 214 214 216 216 215 214 212 211 211 211 211 211 209 207 204 204 206 203 202 203 203 202 199 196 197 196 203 212 213 211 210 210 211 213 211 200 202 219 226 232 249
336 335 335 335 335 334 332 330 328 324 320 316 308 299 288 275 262 250 240 233 227 224 222 221 222 224 225 226 228 228 227 224 221 220 218 216 216 215 213 214 214 215 215 215 214 214 214 214 215 216 216 216 214 212 211 211 211 211 211 210 208 204 203 206 205 202 202 202 201 199 195 196 196 201 210 212 211 211 210 211 213 212 203 199 215 221 216 229
337 336 337 338 338 337 335 333 330 326 322 318 311 302 290 277 263 252 241 233 228 223 220 219 219 220 222 223 225 227 227 225 222 220 218 216 216 215 213 213 213 214 214 214 214 213 213 214 216 216 216 216 214 212 211 211 210 211 210 210 208 203 201 206 207 203 201 198 198 199 196 195 196 200 208 212 212 213 213 212 212 211 205 198 212 220 206 212
338 338 339 341 340 339 337 335 331 327 323 319 313 305 294 279 265 253 243 234 228 224 220 218 216 216 218 220 222 224 225 225 222 219 218 217 216 215 213 212 212 213 213 213 213 213 213 214 215 215 215 215 214 213 212 211 210 210 210 210 208 203 199 204 208 206 203 199 197 199 199 198 196 197 204 210 212 214 214 212 210 209 204 197 208 213 203 209
339 340 342 343 342 341 339 336 332 328 324 320 315 308 297 283 269 256 245 236 229 224 221 218 216 215 215 217 219 220 222 223 222 219 218 217 215 214 214 212 211 212 212 212 212 212 213 213 214 214 214 214 214 213 212 211 210 210 210 209 209 205 200 201 206 207 206 203 200 200 201 201 199 196 200 207 211 213 211 210 212 208 202 200 207 212 211 216
340 342 344 345 344 343 341 337 332 328 325 320 316 310 301 288 274 260 248 239 231 225 222 219 216 214 214 215 216 217 219 221 221 220 217 217 216 214 213 212 211 211 211 211 212 212 213 214 214 213 213 213 214 214 213 212 211 210 210 209 209 206 202 201 203 204 204 204 201 199 201 202 200 196 198 205 210 212 209 209 213 211 202 202 209 216 219 221
341 343 346 346 346 345 343 338 333 329 325 320 316 311 304 293 278 264 252 243 234 227 222 220 217 215 214 214 214 215 216 218 220 219 218 216 216 215 213 212 211 210 211 211 212 212 213 213 214 214 213 212 213 214 213 212 211 211 210 210 208 206 205 204 204 202 201 201 198 195 197 199 199 197 199 206 210 211 211 210 213 213 205 203 209 217 222 223
343 345 347 348 347 347 344 339 334 330 326 321 316 311 305 296 283 268 256 246 239 230 224 221 218 216 214 214 214 214 214 216 218 218 217 216 215 215 214 213 211 210 210 211 212 212 213 213 213 214 214 213 213 213 213 213 212 211 211 210 208 207 207 207 206 205 201 198 196 194 193 196 199 200 200 206 210 209 210 211 211 212 209 207 211 218 223 224
344 346 348 349 349 348 346 341 336 331 327 322 318 312 305 298 289 276 262 252 244 235 227 222 220 217 215 214 214 213 213 215 216 217 217 216 215 215 214 213 212 211 210 211 212 212 212 212 213 213 213 213 214 214 213 213 212 211 210 210 209 207 208 208 208 208 204 200 199 196 193 194 199 201 198 202 207 205 204 208 209 212 213 213 217 221 224 224
345 348 349 350 350 350 348 343 338 333 329 325 319 312 304 298 291 281 270 260 252 243 233 226 222 219 217 215 214 213 213 214 215 216 216 216 215 215 214 213 212 211 211 210 212 212 212 212 212 213 213 213 214 214 214 214 213 212 211 209 209 208 207 208 208 210 208 205 204 202 197 196 199 200 197 198 203 201 201 205 208 211 214 217 220 221 222 221
347 349 350 351 352 352 349 344 340 336 331 327 320 312 304 296 289 280 273 266 259 251 241 231 225 221 218 217 215 214 213 213 214 215 216 216 215 214 214 214 212 212 212 211 211 212 212 212 212 212 213 213 214 214 214 215 214 213 211 210 209 208 207 208 209 210 210 208 207 207 204 202 201 201 199 199 200 199 200 203 203 207 213 216 219 220 220 220
348 350 351 352 353 353 351 346 342 338 334 330 322 313 305 295 287 277 271 268 264 259 251 241 231 224 220 218 216 215 214 213 213 214 215 216 215 214 214 214 213 212 212 212 211 212 212 212 212 212 212 213 214 214 214 215 215 213 212 211 209 209 208 208 209 210 211 210 209 208 207 205 204 203 201 201 200 199 201 201 199 202 209 214 217 218 218 220
349 350 352 353 354 354 353 348 344 341 337 332 324 313 305 295 286 277 272 271 268 264 259 252 241 231 224 220 217 216 215 214 213 213 214 215 215 215 214 213 213 212 212 212 211 211 212 212 212 212 212 213 214 215 214 215 215 214 212 211 210 209 208 208 208 210 211 211 210 209 208 206 206 205 203 202 201 200 202 202 199 201 204 211 216 217 217 217
349 351 353 354 355 355 354 350 346 343 339 333 323 312 304 298 294 289 285 281 276 271 266 261 253 241 230 223 219 217 216 215 214 213 214 214 215 215 214 213 212 212 212 212 211 211 211 212 212 212 213 213 214 214 215 215 215 213 212 212 210 209 209 208 208 210 211 211 210 209 208 207 206 207 205 203 201 200 203 205 203 201 201 206 213 216 215 215
350 352 353 355 356 356 355 352 348 345 341 333 323 312 303 298 295 292 289 286 281 276 269 262 258 250 239 228 222 219 217 216 215 214 214 215 215 215 215 214 213 212 212 212 212 211 211 211 211 212 213 214 214 214 215 215 214 213 212 211 209 208 208 208 208 209 210 210 209 208 208 207 206 206 206 205 204 201 202 206 205 201 199 202 210 214 215 216
351 352 354 355 356 356 355 353 348 346 343 335 323 310 301 298 299 300 299 296 293 286 276 263 255 251 244 234 225 221 219 217 216 215 215 215 215 215 215 215 214 213 212 212 211 211 211 211 211 212 212 213 214 214 214 214 214 213 212 211 210 208 208 208 208 209 210 209 209 207 207 207 205 205 206 207 207 203 200 205 206 200 197 200 205 211 214 217
351 353 354 356 357 357 356 353 349 345 344 339 326 309 305 308 312 313 310 306 302 297 287 272 256 246 242 236 227 221 220 218 216 216 215 215 215 215 215 215 214 214 213 212 211 211 211 210 211 211 212 213 213 214 214 214 214 213 213 212 211 210 209 210 210 210 210 210 209 208 208 208 206 205 206 207 209 206 200 203 205 199 195 195 199 208 214 217
352 353 354 356 357 357 356 353 349 345 343 341 330 317 316 319 320 318 314 311 309 303 292 278 261 245 237 234 229 222 219 219 217 216 216 215 214 214 215 215 214 214 214 213 212 211 211 211 211 211 212 212 213 213 214 214 213 213 212 212 211 210 210 210 211 211 211 210 210 209 209 209 207 207 207 208 210 208 202 201 203 200 194 192 196 205 214 220
352 353 355 356 357 357 356 353 349 345 343 341 336 327 325 324 322 320 319 318 315 308 294 276 262 248 234 229 228 222 218 218 218 216 215 215 215 214 214 215 214 214 214 214 213 212 211 211 211 211 212 212 213 213 214 214 214 213 212 212 212 210 210 210 211 212 211 210 210 211 210 209 208 208 209 208 210 210 205 202 203 202 198 193 194 201 209 218
352 353 354 356 357 357 356 353 350 346 343 342 339 332 329 327 325 325 324 323 320 313 297 274 258 249 236 226 224 221 217 216 217 216 215 215 215 214 214 215 215 214 214 214 213 213 212 212 211 211 212 213 212 213 213 214 214 214 213 213 213 211 211 211 211 211 210 209 209 211 211 210 209 208 209 210 210 210 207 204 203 202 199 195 195 199 203 210
352 353 354 356 357 358 356 353 350 346 343 342 340 335 331 331 331 331 330 329 327 324 311 282 256 246 238 226 221 219 216 214 215 215 214 214 214 214 214 215 215 215 214 214 213 213 213 213 212 211 212 213 213 213 213 214 215 214 214 214 214 213 212 212 212 212 210 209 209 211 211 210 209 209 210 211 211 210 208 207 204 200 196 194 195 198 200 206
352 353 354 355 357 358 357 354 349 345 343 342 341 337 334 334 336 336 335 335 335 334 326 303 264 245 238 228 220 217 214 213 213 213 214 214 213 214 214 214 215 215 215 214 214 213 213 213 212 212 213 213 212 212 213 213 214 214 213 213 213 213 213 213 213 212 211 210 211 212 212 211 210 210 211 212 212 211 209 208 206 202 196 193 195 197 199 204
352 353 354 355 357 358 357 354 349 345 342 341 340 337 335 337 340 341 340 340 340 340 334 320 285 248 236 229 222 217 214 212 212 211 212 212 212 213 213 214 215 215 215 215 215 214 214 213 213 213 213 212 212 212 213 213 214 214 213 213 212 212 213 213 213 213 212 210 211 212 213 212 211 210 212 213 213 213 211 209 207 206 201 197 195 196 197 200
352 353 353 354 356 358 357 354 350 345 342 341 340 337 338 340 343 345 345 345 343 342 340 332 312 267 239 229 222 218 215 212 211 210 210 210 211 212 212 213 214 215 215 216 216 215 214 214 213 214 214 213 212 212 213 213 214 214 213 213 212 213 214 214 213 213 212 211 211 213 213 213 211 211 213 214 214 215 214 212 209 208 207 204 200 198 197 197
352 353 353 354 356 358 358 355 350 346 342 342 340 337 340 343 346 347 348 347 344 342 343 340 329 298 250 230 222 218 215 212 210 210 210 209 209 210 211 212 213 214 214 215 216 216 215 214 214 214 214 214 213 213 213 213 214 214 214 213 212 213 214 214 214 214 213 212 212 214 214 214 212 212 213 214 215 216 216 215 213 211 210 209 207 204 201 197
351 352 353 353 355 357 358 355 351 347 343 342 340 338 341 345 347 348 349 348 345 342 343 344 337 318 270 234 222 217 215 212 210 210 210 209 208 209 210 211 212 212 213 214 215 216 216 215 214 214 214 214 214 214 214 214 214 214 214 213 213 213 213 214 215 215 215 214 213 214 216 215 213 213 214 215 215 216 217 217 216 214 212 211 211 210 208 203
351 352 352 353 355 357 358 356 351 347 344 343 340 338 342 345 347 349 350 349 345 344 344 345 342 331 295 242 224 218 215 213 211 210 210 209 208 208 209 210 211 211 212 213 214 215 216 216 215 215 214 214 214 214 215 215 215 215 215 214 214 214 214 214 215 215 216 216 215 215 216 217 215 213 214 215 216 217 218 218 217 216 215 214 213 213 213 210
351 352 352 352 354 356 357 356 352 348 345 343 339 337 342 346 347 348 350 349 347 345 344 345 345 338 316 257 228 220 215 213 211 210 210 209 208 208 208 209 210 211 211 212 213 214 215 216 216 215 215 215 215 215 214 215 215 215 215 214 214 214 214 215 215 215 216 217 217 216 217 218 217 215 215 215 216 218 219 219 219 218 217 216 215 215 216 215
350 351 351 352 353 355 357 356 352 348 346 343 338 337 341 346 347 348 349 350 349 346 344 344 345 342 329 286 234 222 217 213 211 210 209 209 208 208 208 209 210 210 211 211 212 213 214 215 216 216 216 216 216 215 215 215 215 215 215 215 215 214 214 215 215 215 216 217 217 218 218 218 218 217 217 216 216 217 219 220 220 219 218 218 218 218 218 218
349 350 351 351 353 355 356 356 353 349 346 343 337 336 340 344 347 348 350 350 350 348 346 344 343 343 336 314 249 224 218 215 212 210 209 208 208 207 208 210 211 211 210 211 212 213 213 214 215 215 216 216 216 216 215 215 216 216 216 215 215 215 215 215 215 215 216 217 218 218 219 219 219 219 219 218 218 218 219 220 220 220 220 219 219 220 220 220
348 349 350 351 352 354 355 355 353 349 346 342 336 334 339 343 347 348 350 351 350 349 348 344 342 342 338 327 279 231 219 215 213 211 209 208 208 207 208 209 211 212 211 210 211 213 213 214 214 215 215 216 216 216 215 215 215 216 217 217 216 215 215 215 215 215 216 217 218 219 219 220 220 219 220 220 219 219 219 220 220 221 221 220 220 221 222 222
347 349 349 350 351 353 354 355 353 349 346 341 334 332 337 342 346 348 351 352 352 351 350 345 341 340 337 330 307 247 223 216 213 211 210 209 208 207 208 209 211 212 211 210 211 212 213 214 214 215 215 216 216 216 216 215 216 216 217 217 217 216 216 216 216 216 216 217 218 219 220 220 221 221 221 221 221 221 221 221 220 221 221 221 221 222 223 223
346 348 348 349 350 352 354 354 353 350 345 339 332 330 334 340 345 348 351 354 353 352 351 347 342 340 337 332 320 275 230 218 213 212 211 209 208 207 208 209 211 212 211 210 210 211 213 214 215 215 215 215 215 216 216 216 216 216 217 217 217 217 217 217 216 216 216 217 218 219 219 220 221 222 222 222 222 222 222 222 222 222 222 222 222 223 223 224
Height
10916 10915 10913 10912 10911 10910 10908 10907 10906 10905 10905 10905 10905 10905 10905 10904 10904 10904 10905 10906 10906 10907 10908 10909 10911 10913 10915 10917 10920 10923 10925 10928 10932 10937 10941 10942 10943 10947 10952 10955 10957 10961 10964 10967 10971 10974 10977 10981 10984 10988 10991 10994 10997 11001 11003 11006 11008 11010 11012 11014 11016 11017 11018 11019 11020 11021 11023 11024 11023 11024 11025 11026 11027 11027 11027 11027 11027 11027 11026 11026 11025 11024 11023 11023 11021 11019 11017 11016
10913 10912 10911 10909 10908 10907 10905 10903 10902 10901 10900 10900 10900 10900 10900 10900 10900 10900 10900 10900 10901 10902 10903 10904 10905 10907 10909 10912 10914 10917 10920 10923 10927 10933 10936 10938 10940 10943 10946 10950 10953 10957 10960 10964 10967 10970 10974 10978 10981 10985 10988 10992 10995 10998 11001 11004 11006 11008 11010 11012 11014 11015 11016 11018 11019 11021 11022 11023 11023 11023 11025 11026 11027 11027 11028 11028 11028 11028 11027 11027 11026 11025 11025 11024 11022 11021 11019 11018
10910 10909 10908 10906 10905 10903 10901 10900 10898 10896 10895 10895 10894 10894 10895 10895 10895 10895 10895 10895 10896 10897 10898 10899 10900 10902 10903 10906 10908 10912 10915 10918 10923 10927 10930 10934 10936 10938 10941 10945 10949 10953 10956 10960 10963 10967 10970 10974 10977 10981 10985 10989 10992 10995 10998 11001 11003 11006 11008 11011 11012 11013 11015 11017 11018 11020 11021 11022 11022 11022 11024 11025 11026 11027 11028 11028 11028 11028 11028 11028 11027 11026 11026 11025 11024 11022 11021 11020
10907 10905 10904 10902 10901 10899 10897 10895 10893 10892 10890 10890 10889 10888 10888 10888 10889 10890 10890 10889 10890 10891 10892 10894 10895 10897 10898 10900 10902 10906 10909 10913 10918 10921 10925 10930 10931 10933 10937 10941 10945 10948 10951 10955 10959 10963 10967 10971 10975 10979 10982 10986 10989 10992 10995 10998 11001 11004 11006 11009 11011 11012 11014 11016 11017 11019 11021 11022 11021 11022 11023 11025 11026 11027 11028 11028 11029 11029 11029 11028 11027 11027 11027 11026 11025 11024 11023 11022
10903 10901 10899 10898 10896 10894 10892 10890 10889 10887 10885 10884 10883 10882 10882 10881 10882 10883 10884 10884 10884 10884 10886 10888 10890 10891 10892 10894 10896 10900 10903 10908 10912 10914 10919 10924 10925 10928 10932 10936 10940 10943 10946 10951 10955 10959 10963 10967 10971 10976 10979 10983 10986 10989 10992 10996 10999 11001 11004 11007 11009 11011 11013 11015 11017 11019 11020 11021 11021 11022 11023 11024 11026 11027 11028 11028 11029 11029 11029 11029 11028 11028 11027 11027 11026 11025 11024 11024
10899 10897 10895 10893 10891 10889 10887 10885 10883 10881 10879 10878 10876 10876 10875 10874 10875 10875 10877 10878 10879 10878 10879 10881 10883 10885 10887 10888 10890 10894 10898 10903 10906 10908 10913 10917 10920 10923 10927 10930 10935 10938 10942 10946 10950 10955 10959 10964 10968 10973 10976 10980 10984 10987 10990 10994 10997 10999 11002 11005 11008 11011 11012 11014 11016 11018 11019 11020 11020 11021 11023 11024 11025 11027 11027 11028 11029 11029 11029 11030 11029 11029 11028 11027 11027 11026 11026 11025
10895 10893 10891 10888 10886 10883 10881 10879 10877 10875 10873 10871 10870 10869 10868 10867 10867 10867 10869 10870 10872 10873 10872 10874 10876 10879 10880 10882 10884 10887 10892 10896 10899 10902 10907 10911 10914 10917 10921 10925 10929 10934 10937 10941 10946 10951 10956 10961 10965 10969 10973 10976 10981 10984 10987 10992 10995 10998 11000 11003 11007 11010 11012 11014 11016 11018 11019 11019 11019 11020 11022 11024 11025 11026 11027 11028 11029 11029 11029 11030 11030 11029 11028 11028 11028 11028 11027 11026
10890 10888 10886 10883 10880 10878 10875 10872 10870 10868 10866 10864 10862 10861 10860 10859 10859 10859 10860 10862 10864 10866 10866 10867 10869 10871 10873 10876 10878 10881 10885 10889 10893 10896 10900 10904 10908 10912 10916 10919 10924 10929 10933 10937 10943 10948 10953 10958 10962 10966 10969 10973 10977 10980 10984 10989 10993 10995 10998 11001 11004 11007 11009 11012 11014 11016 11017 11018 11018 11019 11021 11023 11024 11025 11027 11028 11028 11029 11030 11030 11030 11030 11029 11029 11029 11029 11028 11028
10885 10882 10880 10877 10875 10871 10868 10865 10863 10860 10858 10856 10854 10853 10852 10851 10851 10851 10851 10853 10855 10857 10859 10860 10862 10864 10866 10869 10871 10875 10879 10882 10885 10889 10894 10898 10901 10906 10910 10913 10919 10924 10928 10933 10938 10943 10949 10953 10958 10962 10966 10969 10973 10977 10981 10986 10990 10992 10994 10998 11002 11004 11007 11010 11013 11015 11016 11017 11018 11019 11021 11022 11023 11025 11026 11027 11028 11028 11029 11030 11030 11030 11030 11030 11030 11030 11030 11029
10880 10876 10873 10870 10867 10864 10861 10858 10855 10852 10850 10848 10846 10844 10843 10842 10842 10842 10842 10843 10845 10848 10851 10853 10855 10856 10858 10861 10864 10869 10872 10874 10878 10883 10887 10892 10895 10899 10904 10908 10913 10919 10923 10928 10933 10939 10944 10950 10955 10959 10962 10966 10970 10974 10978 10982 10986 10988 10991 10994 10999 11003 11005 11008 11011 11013 11015 11015 11016 11018 11019 11021 11023 11024 11026 11027 11027 11028 11029 11030 11030 11030 11031 11031 11031 11031 11031 11030
10874 10870 10867 10863 10859 10855 10852 10849 10846 10843 10840 10838 10836 10834 10833 10832 10832 10832 10833 10834 10835 10837 10840 10844 10847 10849 10851 10853 10856 10862 10865 10868 10872 10876 10881 10885 10889 10893 10898 10902 10908 10913 10918 10923 10929 10935 10941 10947 10951 10954 10958 10962 10967 10970 10974 10979 10982 10984 10987 10991 10996 10999 11002 11006 11009 11011 11013 11014 11015 11017 11018 11019 11021 11023 11024 11026 11027 11028 11029 11030 11030 11031 11032 11032 11032 11032 11032 11031
10868 10864 10860 10855 10851 10846 10843 10839 10836 10833 10830 10827 10825 10823 10822 10822 10821 10821 10822 10823 10825 10827 10830 10834 10838 10840 10842 10845 10850 10855 10858 10860 10864 10868 10873 10878 10882 10887 10892 10897 10902 10908 10913 10918 10925 10932 10938 10942 10945 10948 10953 10958 10962 10966 10971 10975 10978 10979 10983 10989 10994 10997 11000 11004 11007 11009 11012 11012 11013 11015 11017 11017 11019 11022 11023 11025 11026 11027 11029 11030 11031 11032 11032 11033 11033 11033 11033 11032
10861 10857 10852 10847 10842 10837 10833 10829 10825 10822 10818 10815 10813 10811 10810 10809 10809 10810 10810 10812 10814 10816 10819 10823 10827 10831 10834 10837 10842 10845 10848 10851 10856 10860 10866 10871 10877 10882 10887 10892 10897 10903 10908 10913 10920 10927 10932 10936 10939 10943 10949 10954 10958 10962 10967 10970 10972 10975 10981 10987 10991 10995 10998 11001 11004 11007 11010 11010 11011 11013 11015 11015 11017 11020 11022 11024 11025 11027 11029 11030 11031 11032 11033 11033 11033 11033 11034 11033
10854 10849 10844 10838 10833 10828 10823 10818 10814 10809 10805 10802 10799 10797 10796 10795 10795 10796 10797 10800 10802 10805 10808 10811 10815 10820 10825 10829 10831 10834 10838 10843 10849 10854 10859 10866 10872 10877 10882 10887 10893 10898 10903 10908 10915 10921 10926 10930 10934 10939 10944 10948 10952 10958 10962 10965 10967 10972 10978 10984 10988 10991 10994 10997 11000 11003 11006 11008 11009 11011 11012 11014 11016 11019 11021 11022 11024 11026 11028 11030 11030 11031 11033 11033 11034 11034 11034 11034
10846 10841 10835 10829 10824 10818 10812 10807 10801 10796 10791 10787 10784 10782 10781 10780 10780 10781 10783 10786 10789 10792 10796 10800 10804 10809 10815 10819 10821 10825 10831 10837 10843 10849 10854 10861 10867 10872 10877 10882 10887 10892 10897 10903 10909 10915 10921 10925 10929 10933 10938 10942 10947 10953 10958 10961 10964 10968 10975 10980 10984 10987 10990 10994 10997 10999 11002 11005 11007 11009 11011 11013 11015 11018 11020 11021 11023 11025 11027 11029 11030 11031 11032 11033 11034 11035 11035 11034
10838 10832 10826 10820 10814 10807 10801 10794 10788 10782 10777 10772 10768 10766 10764 10763 10764 10765 10768 10772 10775 10779 10783 10788 10792 10798 10803 10808 10813 10818 10824 10830 10837 10843 10849 10855 10861 10865 10870 10875 10880 10886 10891 10896 10902 10908 10915 10920 10924 10928 10932 10937 10942 10948 10953 10957 10959 10963 10970 10976 10979 10982 10986 10990 10993 10996 10999 11002 11004 11006 11009 11011 11013 11016 11018 11019 11021 11024 11026 11028 11029 11030 11032 11033 11034 11035 11035 11035
10831 10825 10818 10811 10804 10797 10789 10782 10775 10768 10761 10756 10752 10749 10747 10747 10747 10749 10753 10757 10761 10765 10770 10775 10780 10786 10791 10798 10804 10810 10816 10822 10827 10834 10841 10847 10852 10857 10862 10868 10873 10879 10884 10889 10895 10902 10908 10914 10919 10922 10927 10932 10937 10942 10947 10950 10953 10958 10965 10971 10975 10979 10983 10987 10990 10993 10996 10999 11001 11004 11006 11009 11011 11013 11015 11018 11020 11023 11025 11027 11028 11030 11031 11032 11034 11035 11035 11035
10825 10818 10810 10802 10794 10786 10777 10769 10761 10753 10746 10741 10737 10733 10731 10731 10732 10734 10737 10742 10747 10752 10757 10763 10769 10775 10781 10787 10794 10800 10806 10811 10817 10825 10832 10837 10843 10850 10855 10860 10866 10872 10876 10882 10889 10896 10902 10908 10913 10917 10922 10928 10931 10934 10938 10942 10947 10953 10960 10966 10971 10975 10979 10983 10987 10990 10993 10996 10999 11001 11004 11007 11009 11011 11013 11016 11018 11021 11023 11025 11027 11029 11030 11031 11033 11034 11035 11035
10818 10811 10802 10794 10785 10775 10766 10757 10748 10739 10733 10727 10723 10720 10717 10717 10718 10720 10723 10728 10733 10739 10745 10751 10757 10764 10770 10776 10782 10789 10795 10801 10807 10815 10823 10829 10835 10842 10848 10853 10859 10864 10869 10875 10882 10889 10895 10902 10907 10911 10916 10920 10921 10924 10931 10938 10945 10951 10956 10963 10969 10973 10977 10980 10984 10987 10989 10992 10995 10999 11002 11005 11007 11009 11010 11014 11016 11019 11021 11023 11025 11027 11029 11030 11032 11033 11034 11035
10811 10803 10795 10785 10775 10765 10755 10746 10736 10727 10721 10716 10712 10709 10707 10706 10707 10708 10711 10715 10720 10726 10733 10739 10746 10753 10759 10765 10771 10778 10785 10792 10799 10807 10815 10821 10828 10835 10840 10846 10852 10857 10863 10869 10875 10882 10888 10895 10900 10901 10904 10907 10912 10920 10930 10936 10941 10946 10951 10958 10965 10970 10974 10978 10982 10985 10987 10990 10993 10997 11000 11003 11006 11007 11008 11011 11014 11016 11019 11021 11024 11026 11028 11030 11031 11032 11033 11035
10804 10796 10787 10777 10766 10755 10745 10735 10725 10717 10711 10707 10704 10701 10699 10698 10698 10699 10702 10705 10709 10715 10722 10728 10735 10742 10748 10755 10761 10769 10777 10784 10792 10800 10807 10814 10820 10826 10833 10839 10845 10850 10856 10862 10869 10875 10882 10888 10890 10890 10896 10902 10910 10920 10926 10930 10936 10942 10946 10952 10960 10966 10971 10975 10980 10982 10983 10986 10990 10993 10997 11000 11004 11005 11007 11009 11012 11014 11016 11019 11022 11025 11027 11029 11030 11031 11032 11034
10798 10789 10780 10769 10758 10747 10735 10725 10716 10709 10704 10700 10697 10694 10692 10692 10691 10692 10694 10697 10701 10706 10712 10718 10725 10732 10739 10746 10753 10761 10768 10776 10784 10791 10798 10806 10811 10818 10826 10832 10838 10844 10850 10857 10864 10870 10876 10879 10879 10884 10892 10899 10907 10915 10920 10925 10932 10936 10941 10947 10955 10963 10968 10970 10972 10973 10975 10979 10983 10988 10992 10996 11000 11002 11004 11007 11009 11012 11015 11018 11021 11023 11026 11028 11030 11030 11031 11033
10792 10783 10773 10762 10750 10739 10727 10717 10709 10703 10698 10695 10692 10689 10687 10687 10686 10687 10688 10691 10694 10698 10703 10709 10716 10723 10730 10737 10744 10752 10760 10767 10775 10782 10789 10796 10803 10811 10818 10824 10831 10837 10845 10852 10858 10863 10865 10866 10870 10878 10887 10894 10902 10908 10913 10920 10926 10931 10936 10942 10949 10956 10961 10962 10962 10965 10970 10975 10979 10984 10989 10993 10996 10998 11000 11004 11007 11010 11014 11017 11019 11021 11024 11026 11028 11029 11030 11032
10786 10777 10766 10755 10744 10732 10721 10711 10703 10698 10694 10690 10688 10685 10684 10683 10682 10683 10684 10686 10689 10692 10697 10702 10708 10714 10721 10728 10735 10743 10751 10758 10765 10773 10780 10787 10795 10803 10809 10817 10825 10832 10838 10844 10850 10853 10853 10856 10864 10873 10881 10889 10896 10901 10908 10914 10920 10925 10931 10936 10942 10949 10954 10955 10956 10961 10968 10973 10977 10982 10987 10991 10995 10997 10998 11001 11005 11008 11012 11015 11016 11019 11021 11024 11026 11027 11029 11031
10780 10771 10761 10750 10738 10726 10715 10706 10699 10694 10690 10687 10684 10682 10681 10680 10679 10679 10680 10682 10684 10687 10691 10695 10700 10707 10713 10719 10727 10735 10742 10749 10756 10764 10772 10779 10786 10794 10802 10810 10818 10825 10831 10837 10841 10843 10845 10853 10862 10869 10876 10884 10890 10896 10902 10908 10914 10919 10924 10930 10936 10943 10948 10949 10950 10957 10964 10970 10976 10982 10985 10989 10993 10995 10996 10999 11002 11006 11010 11012 11014 11017 11019 11022 11024 11026 11028 11030
10775 10765 10755 10744 10733 10721 10710 10702 10695 10691 10687 10683 10681 10679 10678 10677 10677 10677 10678 10678 10680 10683 10686 10690 10695 10700 10706 10712 10719 10727 10734 10741 10748 10755 10763 10771 10779 10787 10795 10803 10811 10818 10824 10829 10833 10835 10841 10851 10859 10864 10871 10878 10883 10889 10895 10901 10908 10913 10918 10924 10931 10937 10941 10943 10948 10954 10961 10968 10975 10980 10983 10987 10990 10993 10994 10997 11000 11004 11007 11010 11012 11015 11017 11020 11022 11024 11026 11029
10770 10760 10750 10739 10728 10716 10706 10698 10692 10687 10684 10680 10678 10676 10675 10675 10675 10675 10675 10676 10677 10679 10682 10685 10689 10694 10700 10705 10712 10719 10726 10732 10738 10746 10755 10764 10772 10779 10787 10795 10804 10811 10817 10822 10826 10830 10838 10847 10853 10858 10866 10873 10878 10883 10889 10895 10901 10906 10911 10918 10926 10932 10936 10941 10948 10953 10960 10967 10972 10975 10978 10982 10986 10989 10993 10996 10999 11002 11004 11007 11010 11013 11015 11018 11020 11021 11024 11027
10766 10756 10745 10734 10723 10712 10702 10694 10689 10684 10681 10678 10675 10674 10673 10673 10673 10673 10673 10674 10674 10676 10679 10681 10684 10688 10694 10699 10705 10712 10719 10724 10731 10739 10748 10756 10764 10771 10779 10788 10796 10804 10810 10815 10819 10825 10833 10841 10846 10852 10859 10866 10871 10876 10881 10886 10892 10898 10904 10913 10921 10928 10934 10940 10945 10949 10955 10962 10966 10969 10974 10978 10982 10987 10991 10994 10997 11000 11002 11004 11007 11010 11013 11016 11017 11019 11022 11025
10762 10752 10741 10730 10719 10708 10698 10691 10686 10682 10678 10675 10673 10672 10671 10671 10671 10671 10671 10672 10673 10674 10676 10678 10680 10684 10688 10693 10699 10705 10711 10718 10725 10733 10741 10748 10756 10764 10772 10781 10790 10797 10804 10808 10813 10819 10827 10833 10839 10846 10853 10859 10863 10868 10874 10879 10884 10891 10899 10909 10917 10924 10930 10935 10939 10943 10951 10957 10960 10964 10970 10974 10979 10984 10988 10992 10995 10999 11002 11003 11005 11008 11010 11013 11015 11018 11021 11023
10758 10748 10738 10727 10716 10705 10696 10689 10684 10679 10676 10674 10672 10671 10670 10670 10670 10670 10670 10670 10671 10672 10673 10674 10676 10679 10683 10687 10693 10699 10705 10711 10719 10726 10734 10741 10748 10757 10765 10774 10783 10791 10797 10802 10807 10814 10821 10828 10835 10841 10848 10853 10857 10862 10868 10873 10879 10887 10896 10905 10913 10920 10926 10931 10935 10940 10946 10951 10955 10961 10967 10971 10976 10980 10985 10989 10992 10996 11000 11001 11002 11005 11008 11011 11013 11016 11019 11021
10754 10745 10735 10724 10713 10703 10694 10687 10682 10678 10674 10672 10670 10669 10669 10669 10669 10669 10669 10669 10670 10670 10670 10671 10673 10675 10679 10682 10687 10692 10698 10704 10711 10719 10726 10734 10741 10750 10758 10766 10774 10782 10788 10795 10802 10809 10816 10822 10829 10835 10841 10845 10850 10857 10863 10868 10876 10885 10894 10902 10909 10916 10922 10927 10932 10937 10941 10946 10952 10958 10964 10968 10972 10977 10981 10985 10989 10993 10996 10998 10999 11002 11006 11009 11011 11013 11016 11019
10751 10742 10732 10722 10711 10701 10692 10685 10680 10676 10673 10671 10669 10669 10668 10668 10668 10668 10668 10668 10668 10669 10668 10669 10670 10672 10674 10677 10681 10686 10692 10698 10705 10711 10718 10726 10733 10741 10749 10757 10766 10774 10780 10787 10795 10803 10810 10816 10823 10829 10834 10839 10844 10851 10857 10863 10871 10881 10890 10897 10904 10911 10917 10923 10928 10932 10935 10941 10947 10954 10959 10964 10969 10974 10978 10981 10985 10989 10992 10994 10996 10998 11003 11006 11008 11010 11014 11017
10748 10739 10729 10719 10709 10699 10690 10684 10679 10675 10672 10670 10669 10667 10667 10667 10666 10666 10666 10666 10666 10666 10666 10666 10666 10668 10670 10673 10676 10680 10685 10691 10698 10704 10711 10718 10726 10734 10741 10750 10758 10766 10773 10780 10788 10796 10802 10809 10817 10823 10828 10833 10839 10846 10852 10858 10866 10875 10883 10890 10897 10905 10911 10917 10922 10926 10929 10934 10941 10948 10953 10959 10964 10969 10973 10977 10981 10984 10987 10991 10993 10995 10999 11002 11005 11008 11011 11014
10745 10736 10726 10716 10706 10697 10689 10683 10678 10675 10671 10669 10667 10666 10665 10665 10665 10665 10664 10663 10663 10663 10663 10663 10662 10663 10665 10668 10672 10675 10679 10684 10691 10698 10704 10711 10719 10726 10734 10743 10750 10758 10765 10773 10782 10789 10796 10804 10811 10817 10823 10828 10834 10839 10844 10850 10857 10865 10872 10879 10887 10895 10901 10906 10911 10914 10918 10924 10932 10940 10947 10953 10959 10963 10967 10971 10976 10979 10983 10987 10989 10991 10994 10998 11002 11006 11009 11011
10741 10733 10724 10714 10704 10695 10687 10681 10677 10673 10671 10668 10666 10665 10664 10663 10663 10662 10660 10659 10658 10658 10658 10658 10658 10658 10659 10662 10666 10669 10673 10678 10684 10690 10697 10705 10713 10720 10728 10737 10744 10752 10759 10766 10775 10783 10790 10798 10804 10810 10815 10821 10826 10830 10835 10842 10851 10858 10864 10872 10880 10888 10892 10896 10900 10904 10909 10917 10927 10936 10942 10947 10953 10958 10962 10967 10971 10975 10979 10982 10985 10988 10990 10994 10999 11003 11005 11007
10738 10730 10721 10712 10702 10693 10685 10679 10675 10672 10669 10667 10665 10664 10662 10660 10659 10658 10656 10654 10653 10652 10651 10651 10652 10652 10654 10656 10659 10662 10666 10671 10676 10683 10690 10698 10706 10714 10722 10729 10737 10745 10752 10759 10767 10775 10782 10789 10795 10801 10807 10812 10817 10822 10828 10835 10843 10851 10860 10868 10876 10881 10885 10889 10894 10900 10907 10917 10926 10933 10937 10941 10949 10955 10959 10962 10966 10970 10974 10977 10982 10985 10987 10990 10994 10998 11000 11002
10735 10728 10719 10710 10701 10692 10684 10678 10673 10670 10668 10666 10664 10662 10660 10658 10656 10654 10652 10650 10648 10646 10644 10643 10644 10645 10647 10649 10652 10656 10660 10664 10669 10675 10681 10689 10697 10706 10713 10720 10729 10737 10744 10752 10760 10766 10773 10781 10787 10793 10798 10802 10808 10814 10820 10827 10834 10844 10853 10860 10865 10871 10877 10884 10889 10896 10905 10915 10924 10928 10930 10936 10945 10951 10954 10958 10961 10965 10969 10973 10978 10981 10982 10984 10988 10993 10996 10998
10733 10725 10718 10709 10700 10691 10683 10677 10672 10669 10666 10664 10662 10660 10658 10656 10654 10652 10649 10645 10643 10640 10638 10637 10637 10638 10640 10642 10645 10650 10654 10657 10661 10667 10673 10682 10690 10697 10704 10712 10719 10727 10735 10744 10751 10759 10766 10772 10778 10784 10789 10794 10800 10807 10814 10822 10831 10839 10846 10851 10856 10864 10873 10879 10885 10892 10902 10912 10919 10922 10924 10931 10938 10943 10947 10951 10955 10959 10964 10968 10973 10977 10979 10981 10984 10988 10992 10995
10730 10723 10715 10707 10699 10690 10681 10675 10670 10666 10664 10662 10660 10658 10656 10655 10652 10649 10645 10642 10638 10635 10632 10631 10631 10631 10632 10635 10639 10643 10647 10650 10654 10660 10667 10674 10681 10688 10696 10703 10709 10718 10727 10735 10743 10751 10757 10762 10769 10776 10780 10786 10793 10801 10811 10820 10827 10833 10840 10846 10853 10862 10868 10872 10878 10885 10893 10903 10910 10914 10918 10924 10931 10936 10940 10944 10948 10953 10958 10963 10968 10973 10976 10979 10982 10985 10988 10992
10727 10720 10713 10705 10697 10688 10680 10673 10668 10664 10661 10659 10658 10656 10654 10652 10650 10646 10641 10637 10634 10630 10628 10626 10626 10625 10626 10629 10632 10636 10640 10644 10648 10653 10660 10665 10672 10680 10687 10695 10702 10711 10719 10726 10734 10742 10748 10755 10762 10768 10773 10780 10789 10799 10808 10815 10820 10826 10834 10842 10850 10858 10864 10868 10873 10880 10888 10897 10902 10906 10911 10917 10923 10928 10932 10936 10941 10946 10951 10957 10963 10969 10972 10975 10978 10982 10985 10989
10725 10718 10711 10704 10696 10687 10679 10671 10666 10662 10659 10657 10656 10654 10652 10650 10647 10643 10638 10633 10629 10626 10624 10622 10621 10621 10621 10623 10626 10629 10634 10637 10642 10647 10652 10658 10666 10672 10679 10687 10694 10702 10711 10718 10726 10733 10740 10747 10755 10761 10766 10775 10786 10795 10801 10806 10811 10817 10825 10833 10841 10849 10855 10860 10868 10876 10884 10892 10897 10901 10905 10909 10915 10921 10925 10929 10934 10939 10945 10951 10957 10963 10967 10970 10973 10977 10980 10984
10723 10716 10709 10702 10695 10687 10678 10670 10664 10660 10657 10655 10653 10652 10650 10647 10644 10640 10635 10630 10626 10623 10620 10618 10618 10617 10617 10618 10620 10624 10628 10632 10637 10641 10646 10652 10658 10664 10671 10679 10686 10694 10703 10710 10717 10725 10732 10740 10748 10754 10761 10769 10779 10787 10791 10796 10801 10808 10817 10825 10833 10840 10846 10853 10862 10869 10876 10883 10889 10893 10897 10902 10910 10917 10919 10922 10927 10933 10939 10944 10951 10957 10962 10964 10968 10972 10975 10979
10721 10714 10707 10700 10693 10686 10677 10670 10663 10659 10655 10653 10651 10649 10647 10644 10641 10637 10632 10627 10623 10620 10617 10615 10614 10614 10614 10614 10616 10619 10622 10627 10632 10636 10640 10645 10651 10657 10664 10671 10678 10687 10696 10703 10710 10718 10725 10734 10742 10748 10755 10764 10772 10776 10781 10787 10793 10800 10810 10819 10829 10837 10843 10849 10856 10861 10867 10875 10880 10884 10889 10896 10904 10910 10912 10915 10921 10927 10933 10939 10945 10950 10955 10959 10962 10965 10969 10974
10719 10712 10705 10698 10692 10684 10676 10669 10662 10657 10654 10651 10649 10647 10644 10641 10638 10634 10629 10624 10620 10617 10615 10613 10612 10611 10611 10611 10612 10614 10617 10622 10626 10630 10634 10639 10645 10651 10657 10664 10672 10680 10689 10696 10702 10710 10717 10726 10733 10740 10748 10756 10762 10767 10773 10780 10787 10796 10806 10816 10825 10832 10838 10844 10849 10854 10861 10869 10874 10879 10884 10889 10896 10902 10904 10909 10915 10920 10925 10931 10937 10943 10948 10952 10956 10959 10963 10967
10717 10710 10703 10696 10690 10683 10675 10668 10661 10656 10652 10649 10647 10644 10642 10639 10635 10632 10627 10623 10619 10616 10613 10611 10610 10609 10608 10608 10609 10610 10613 10616 10621 10624 10629 10634 10640 10645 10651 10658 10665 10672 10680 10687 10694 10702 10710 10717 10725 10733 10740 10747 10755 10762 10771 10779 10786 10795 10804 10813 10820 10826 10831 10837 10843 10849 10857 10862 10868 10873 10877 10882 10889 10894 10898 10903 10908 10912 10916 10922 10928 10934 10940 10945 10949 10952 10956 10960
10714 10708 10701 10694 10688 10681 10674 10667 10660 10655 10651 10648 10645 10643 10640 10637 10634 10630 10626 10622 10618 10615 10612 10609 10608 10607 10606 10606 10606 10607 10609 10612 10616 10620 10624 10630 10636 10641 10646 10653 10658 10665 10673 10679 10686 10694 10702 10710 10719 10727 10734 10741 10750 10758 10767 10775 10784 10792 10800 10807 10813 10820 10826 10831 10838 10845 10850 10855 10860 10866 10869 10874 10880 10886 10890 10895 10900 10903 10907 10913 10918 10925 10931 10936 10941 10945 10949 10954
10712 10706 10699 10693 10686 10679 10673 10666 10659 10653 10650 10646 10644 10641 10639 10636 10632 10629 10625 10621 10617 10613 10610 10608 10606 10605 10604 10604 10604 10604 10606 10609 10612 10616 10621 10626 10631 10637 10642 10648 10653 10659 10666 10672 10679 10687 10694 10703 10713 10721 10729 10736 10744 10752 10760 10769 10777 10784 10792 10799 10806 10813 10819 10825 10832 10837 10842 10847 10852 10858 10862 10866 10872 10878 10882 10886 10891 10895 10898 10904 10910 10916 10923 10928 10933 10938 10942 10946
10710 10704 10698 10691 10684 10677 10671 10664 10658 10652 10649 10646 10643 10640 10637 10635 10632 10628 10624 10620 10616 10613 10609 10607 10605 10604 10603 10602 10602 10602 10603 10606 10609 10612 10617 10622 10627 10633 10638 10643 10648 10653 10660 10667 10673 10680 10688 10697 10706 10715 10723 10731 10738 10747 10755 10764 10771 10778 10785 10791 10798 10805 10812 10819 10825 10830 10835 10840 10845 10849 10854 10858 10864 10871 10875 10878 10882 10885 10889 10895 10901 10908 10915 10921 10926 10930 10934 10938
10708 10702 10697 10690 10683 10676 10670 10663 10657 10651 10648 10645 10642 10639 10637 10634 10631 10628 10624 10620 10616 10612 10609 10606 10604 10602 10601 10600 10600 10600 10601 10603 10606 10609 10613 10618 10623 10629 10634 10639 10643 10648 10655 10662 10668 10675 10683 10691 10699 10708 10716 10724 10732 10740 10749 10758 10766 10772 10778 10784 10791 10797 10804 10811 10817 10823 10829 10833 10837 10842 10846 10850 10856 10862 10867 10870 10874 10877 10881 10887 10894 10900 10906 10912 10917 10921 10926 10930
10706 10701 10695 10689 10682 10676 10669 10662 10656 10650 10647 10644 10641 10638 10636 10634 10631 10627 10623 10619 10616 10612 10609 10606 10603 10601 10600 10599 10599 10599 10599 10601 10603 10606 10609 10614 10619 10624 10630 10634 10639 10643 10650 10658 10665 10671 10679 10685 10693 10701 10709 10716 10725 10733 10742 10751 10758 10764 10770 10777 10784 10790 10797 10803 10809 10815 10821 10826 10829 10833 10838 10842 10848 10852 10856 10860 10865 10868 10872 10878 10884 10890 10896 10902 10908 10913 10917 10922
10704 10699 10693 10688 10682 10675 10668 10662 10656 10650 10646 10643 10641 10638 10636 10633 10631 10627 10623 10619 10616 10612 10609 10606 10603 10601 10600 10598 10598 10597 10598 10599 10601 10603 10606 10610 10615 10620 10626 10630 10634 10640 10647 10655 10661 10667 10674 10681 10688 10695 10702 10710 10718 10726 10735 10743 10750 10756 10761 10768 10775 10782 10789 10795 10801 10807 10813 10817 10821 10825 10830 10834 10839 10843 10847 10852 10856 10860 10864 10868 10874 10880 10887 10893 10899 10904 10909 10914
10702 10697 10691 10686 10681 10675 10667 10661 10655 10649 10645 10642 10640 10638 10635 10633 10630 10627 10623 10619 10615 10612 10609 10606 10603 10601 10599 10598 10597 10596 10597 10597 10599 10601 10604 10607 10611 10616 10621 10626 10630 10636 10644 10651 10657 10662 10669 10676 10682 10689 10696 10704 10712 10719 10727 10734 10740 10746 10751 10758 10766 10774 10781 10788 10793 10799 10805 10809 10812 10816 10821 10826 10831 10836 10840 10844 10848 10851 10855 10859 10866 10873 10880 10886 10891 10896 10901 10905